Location: Bishausen
(51.6334°N, 9.9631°E)
Time: 17:50:34
(UTC+00:00)

Cosmos 2333 - Pass Details

Date: 23 May 2024
Orbit: 828 x 866 km, 70.9° (Epoch: 23 June)

Event Time Altitude Azimuth Distance (km) Brightness Sun altitude
Rises 01:41:54 0° 329° (NNW) 3,423 7.7 -11.1°
Reaches altitude 10° 01:44:21 10° 330° (NNW) 2,489 7.0 -10.9°
Maximum altitude 01:50:06 88° 57° (ENE) 865 4.3 -10.3°
Drops below altitude 10° 01:55:52 10° 150° (SSE) 2,496 6.4 -9.8°
Sets 01:58:19 0° 151° (SSE) 3,432 7.1 -9.6°
